Flag for Sweden Weather past 2 weeks in Gothenburg, Sweden

Now
54 °F

Scattered clouds.


Feels Like: 50 °F
Forecast: 49 / 55 °F
Wind: 13 mph from South

Location: Gothenburg / Save

Current Time: Sep 23, 2014 at 3:27:20 PM

Latest Report: Sep 23, 2014 at 2:50 PM


Visibility: N/A

Pressure: 30.01 "Hg

Humidity: 54%

Dew point: 37 °F

Location of GothenburgLocation

Historic Weather in Gothenburg — Graph

°F

Gothenburg temperature yesterday

Maximum temperature yesterday: 55 °F (at 3:20 PM)
Minimum temperature yesterday: 36 °F (at 10:50 PM)
Average temperature yesterday: 48 °F

Past Weeks' High & Low Weather Summary

 TemperatureHumidityPressure
High68 °F (Sep 11, 2:20 PM)100% (Sep 9, 6:20 AM)30.39 "Hg (Sep 9, 6:20 AM)
Low32 °F (Sep 23, 4:20 AM)38% (Sep 22, 3:20 PM)29.68 "Hg (Sep 21, 2:50 PM)
Average54 °F81%30.11 "Hg
* Reported Sep 8 2:20 PM — Sep 23 2:20 PM, Gothenburg, Weather by CustomWeather, © 2014

Note: Actual official high and low records may vary slightly from our data, if they occured in-between our weather recording intervals... More about our weather records

Advertising

Gothenburg weather history for previous 24 hours

 ConditionsComfort  
Time TempWeatherWind HumidityBarometerVisibility
2:20 PM
Sep 23
52 °FSunny.13 mph54%30.01 "Hg10 mi
1:50 PM52 °FSunny.12 mph50%30.04 "Hg10 mi
1:20 PM52 °FSunny.12 mph50%30.04 "Hg10 mi
12:50 PM52 °FSunny.8 mph50%30.04 "Hg10 mi
12:20 PM50 °FSunny.6 mph54%30.04 "Hg10 mi
11:50 AM50 °FSunny.7 mph54%30.04 "Hg10 mi
11:20 AM50 °FSunny.6 mph54%30.04 "Hg10 mi
10:56 AM50 °FSunny.5 mph54%30.04 "Hg10 mi
10:20 AM48 °FSunny.3 mph66%30.04 "Hg10 mi
9:58 AM46 °FSunny.2 mph82%30.04 "Hg10 mi
9:20 AM39 °FSunny.No wind87%30.04 "Hg10 mi
8:20 AM34 °FSunny.No wind93%30.04 "Hg10 mi
7:20 AM34 °FFog.2 mph93%30.04 "HgN/A
6:50 AM32 °FClear.No wind93%30.04 "Hg10 mi
6:20 AM32 °FClear.No wind93%30.04 "Hg10 mi
5:50 AM34 °FClear.2 mph93%30.04 "Hg10 mi
5:20 AM34 °FClear.2 mph93%30.04 "Hg10 mi
4:50 AM32 °FClear.1 mph93%30.04 "Hg10 mi
4:20 AM32 °FClear.No wind93%30.04 "Hg10 mi
3:50 AM34 °FClear.No wind93%30.04 "Hg10 mi
3:20 AM34 °FClear.No wind93%30.04 "Hg10 mi
2:20 AM36 °FClear.No wind93%30.04 "Hg10 mi
1:50 AM37 °FClear.No wind87%30.04 "Hg10 mi
1:20 AM36 °FClear.No wind93%30.04 "Hg10 mi
12:50 AM37 °FClear.No wind81%30.04 "Hg10 mi
12:20 AM36 °FClear.No wind87%30.04 "Hg10 mi
11:50 PM
Sep 22
37 °FClear.2 mph87%30.04 "Hg10 mi
11:20 PM36 °FClear.No wind87%30.04 "Hg10 mi
10:50 PM36 °FClear.No wind87%30.04 "Hg10 mi
10:20 PM39 °FClear.No wind75%30.01 "Hg10 mi
9:50 PM39 °FClear.3 mph81%30.01 "Hg10 mi
9:20 PM43 °FClear.2 mph71%30.01 "Hg10 mi
8:50 PM43 °FClear.3 mph66%30.01 "Hg10 mi
8:20 PM45 °FClear.3 mph61%30.01 "Hg10 mi
7:50 PM46 °FSunny.3 mph57%29.98 "Hg10 mi
7:20 PM48 °FSunny.5 mph54%29.98 "Hg10 mi
6:50 PM50 °FSunny.7 mph50%29.98 "Hg10 mi
6:20 PM52 °FSunny.8 mph47%29.95 "Hg10 mi
5:56 PM54 °FSunny.12 mph41%29.95 "Hg10 mi
5:20 PM54 °FSunny.13 mph41%29.92 "Hg10 mi
4:50 PM54 °FCool.13 mph38%29.92 "HgN/A
4:20 PM55 °FRefreshingly cool.14 mph38%29.92 "HgN/A
3:50 PM55 °FSunny.16 mph38%29.92 "Hg10 mi
3:20 PM55 °FSunny.16 mph38%29.92 "Hg10 mi
Weather by CustomWeather, © 2014

See weather overviewHow to use our weather pages